Kankakee, IL

2:48 AM CDT on May 01, 2017 (GMT -0500)
Greater Kankakee

Weather History for KIKK - October, 2013

Change the Weather History Date:

Tuesday, October 22, 2013

  Actual Average Record
Temperature  
Mean Temperature 34 °F -  
Max Temperature 44 °F 61 °F 84 °F (1979)
Min Temperature 24 °F 37 °F 23 °F (1976)
Degree Days  
Heating Degree Days 31    
Moisture  
Dew Point 30 °F    
Average Humidity 87    
Maximum Humidity 97    
Minimum Humidity 54    
Precipitation  
Precipitation 0.27 in - - ()
Sea Level Pressure  
Sea Level Pressure 29.97 in    
Wind  
Wind Speed 2 mph (NE)    
Max Wind Speed 10 mph    
Max Gust Speed -    
Visibility 9 miles    
Events Rain    
Averages and records for this station are not official NWS values.
T = Trace of Precipitation, MM = Missing Value Source: NWS Daily Summary

Daily Weather History Graph

Daily Weather History Graph

Search for Another Location

Airport or City:

Trip Planner

Search our weather history database for the weather conditions in past years. The results will help you decide how hot, cold, wet, or windy it might be!

Date:

Astronomy

Oct. 22, 2013 Rise Set
Actual Time 7:11 AM CDT 5:59 PM CDT
Civil Twilight 6:42 AM CDT 6:27 PM CDT
Nautical Twilight 6:10 AM CDT 7:00 PM CDT
Astronomical Twilight 5:38 AM CDT 7:31 PM CDT
Moon 8:38 PM CDT (10/22) 10:40 AM CDT (10/22)
Length of Visible Light 11h 45m
Length of Day
10h 48m
Waning Gibbous, 86% of the Moon is Illuminated
Oct 22
Waning Gibbous
Oct 26
Last Quarter
Nov 3
New
Nov 9
First Quarter
Nov 17
Full

Hourly Weather History & Observations

Time (CDT) Temp. Windchill Dew Point Humidity Pressure Visibility Wind Dir Wind Speed Gust Speed Precip Events Conditions
12:15 AM 28.8 °F - 24.3 °F 83% 30.00 in 10.0 mi Calm Calm - N/A   Clear
12:35 AM 28.4 °F - 24.6 °F 86% 30.01 in 10.0 mi Calm Calm - N/A   Clear
12:55 AM 28.4 °F 23.3 °F 24.6 °F 86% 30.01 in 10.0 mi SSW 4.6 mph - N/A   Clear
1:15 AM 27.3 °F - 24.8 °F 90% 30.01 in 10.0 mi Calm Calm - N/A   Clear
1:35 AM 26.6 °F - 24.8 °F 93% 30.01 in 10.0 mi Calm Calm - N/A   Clear
1:55 AM 27.5 °F - 24.4 °F 88% 30.01 in 10.0 mi Calm Calm - N/A   Clear
2:15 AM 25.9 °F - 23.5 °F 91% 30.01 in 10.0 mi Calm Calm - N/A   Clear
2:35 AM 27.3 °F - 23.7 °F 86% 30.02 in 10.0 mi Calm Calm - N/A   Clear
2:55 AM 25.7 °F - 22.8 °F 89% 30.01 in 10.0 mi Calm Calm - N/A   Clear
3:15 AM 27.5 °F - 23.0 °F 83% 30.01 in 10.0 mi Calm Calm - N/A   Clear
3:35 AM 28.4 °F 24.6 °F 23.4 °F 81% 30.01 in 10.0 mi SW 3.5 mph - N/A   Clear
3:55 AM 27.0 °F - 23.2 °F 86% 30.01 in 10.0 mi Calm Calm - N/A   Clear
4:15 AM 25.9 °F - 22.5 °F 87% 30.01 in 10.0 mi Calm Calm - N/A   Clear
4:35 AM 25.5 °F 21.3 °F 22.1 °F 87% 30.02 in 10.0 mi SW 3.5 mph - N/A   Clear
4:55 AM 24.6 °F 18.8 °F 21.7 °F 89% 30.02 in 10.0 mi SW 4.6 mph - N/A   Clear
5:15 AM 25.2 °F - 22.5 °F 89% 30.02 in 10.0 mi Calm Calm - N/A   Clear
5:35 AM 25.2 °F - 22.6 °F 90% 30.02 in 10.0 mi Calm Calm - N/A   Clear
5:55 AM 25.5 °F - 22.8 °F 89% 30.02 in 10.0 mi Calm Calm - N/A   Clear
6:15 AM 25.2 °F - 22.3 °F 89% 30.01 in 10.0 mi Calm Calm - N/A   Clear
6:35 AM 24.4 °F - 22.3 °F 91% 30.01 in 10.0 mi Calm Calm - N/A   Clear
6:55 AM 24.4 °F - 22.5 °F 92% 30.02 in 10.0 mi Calm Calm - N/A   Clear
7:15 AM 24.3 °F - 21.7 °F 90% 30.02 in 10.0 mi Calm Calm - N/A   Clear
7:35 AM 25.0 °F - 22.8 °F 91% 30.02 in 10.0 mi Calm Calm - N/A   Clear
7:55 AM 27.5 °F - 25.3 °F 92% 30.02 in 10.0 mi Calm Calm - N/A   Clear
8:15 AM 30.2 °F - 27.0 °F 88% 30.02 in 10.0 mi Calm Calm - N/A   Clear
8:35 AM 31.6 °F - 28.4 °F 88% 30.02 in 10.0 mi Calm Calm - N/A   Clear
8:55 AM 33.8 °F - 30.0 °F 86% 30.02 in 10.0 mi Calm Calm - N/A   Scattered Clouds
9:15 AM 35.6 °F - 31.1 °F 84% 30.01 in 10.0 mi Calm Calm - N/A   Mostly Cloudy
9:35 AM 37.4 °F - 31.1 °F 78% 30.01 in 10.0 mi Calm Calm - N/A   Overcast
9:55 AM 39.2 °F - 31.8 °F 75% 30.01 in 10.0 mi Calm Calm - N/A   Overcast
10:15 AM 40.3 °F - 32.0 °F 72% 30.01 in 10.0 mi Calm Calm - N/A   Mostly Cloudy
10:35 AM 41.4 °F - 31.5 °F 68% 30.00 in 10.0 mi Calm Calm - N/A   Overcast
10:55 AM 42.1 °F - 30.6 °F 64% 29.99 in 10.0 mi Calm Calm - N/A   Overcast
11:15 AM 43.5 °F - 29.8 °F 59% 29.99 in 10.0 mi Calm Calm - N/A   Mostly Cloudy
11:35 AM 44.6 °F - 30.0 °F 57% 29.99 in 10.0 mi Calm Calm - N/A   Mostly Cloudy
11:55 AM 43.7 °F - 28.2 °F 54% 29.97 in 10.0 mi Calm Calm - N/A   Overcast
12:15 PM 43.7 °F - 29.7 °F 58% 29.97 in 10.0 mi Calm Calm - N/A   Drizzle
12:35 PM 43.0 °F - 31.3 °F 63% 29.97 in 10.0 mi Calm Calm - N/A Rain Light Rain
12:55 PM 41.7 °F - 32.9 °F 71% 29.96 in 10.0 mi Calm Calm - N/A Rain Light Rain
1:15 PM 41.2 °F - 33.4 °F 74% 29.95 in 10.0 mi Calm Calm - 0.01 in Rain Light Rain
1:35 PM 40.5 °F - 34.0 °F 78% 29.95 in 10.0 mi Calm Calm - 0.02 in Rain Light Rain
1:55 PM 39.7 °F - 35.8 °F 86% 29.95 in 10.0 mi Calm Calm - 0.03 in Rain Light Rain
2:15 PM 38.3 °F - 34.5 °F 86% 29.94 in 7.0 mi Calm Calm - 0.03 in Rain Rain
2:35 PM 38.5 °F - 35.6 °F 89% 29.94 in 7.0 mi Calm Calm - 0.05 in Rain Light Rain
2:55 PM 38.3 °F 33.9 °F 35.2 °F 89% 29.92 in 7.0 mi ENE 5.8 mph - 0.08 in Rain Light Rain
3:15 PM 37.9 °F 32.1 °F 35.8 °F 92% 29.92 in 7.0 mi NE 8.1 mph - N/A   Drizzle
3:35 PM 37.8 °F 31.8 °F 36.0 °F 93% 29.92 in 10.0 mi NE 8.1 mph - 0.01 in Rain Light Rain
3:55 PM 37.6 °F 32.3 °F 35.8 °F 93% 29.92 in 10.0 mi NE 6.9 mph - 0.01 in   Overcast
4:15 PM 37.6 °F 32.3 °F 36.0 °F 94% 29.91 in 7.0 mi NE 6.9 mph - N/A   Light Drizzle
4:35 PM 37.6 °F 31.0 °F 36.0 °F 94% 29.92 in 7.0 mi NE 9.2 mph - N/A   Drizzle
4:55 PM 37.6 °F 31.0 °F 36.5 °F 96% 29.92 in 5.0 mi NE 9.2 mph - 0.01 in Rain Light Rain
5:15 PM 37.6 °F 31.6 °F 36.1 °F 95% 29.92 in 5.0 mi ENE 8.1 mph - 0.01 in Rain Light Rain
5:35 PM 37.4 °F 32.1 °F 36.1 °F 95% 29.92 in 5.0 mi NE 6.9 mph - 0.04 in Rain Light Rain
5:55 PM 37.4 °F 31.4 °F 36.0 °F 95% 29.92 in 7.0 mi NE 8.1 mph - 0.05 in Rain Light Rain
6:15 PM 37.2 °F 31.2 °F 36.0 °F 95% 29.92 in 10.0 mi ENE 8.1 mph - 0.01 in Rain Light Rain
6:35 PM 37.0 °F 31.0 °F 35.6 °F 95% 29.91 in 7.0 mi ENE 8.1 mph - 0.03 in Rain Light Rain
6:55 PM 37.0 °F 32.4 °F 36.0 °F 96% 29.92 in 7.0 mi NE 5.8 mph - 0.04 in Rain Light Rain
7:15 PM 36.9 °F 29.6 °F 35.6 °F 95% 29.92 in 7.0 mi NE 10.4 mph - 0.01 in Rain Light Rain
7:35 PM 36.5 °F 30.3 °F 35.1 °F 95% 29.93 in 7.0 mi NE 8.1 mph - 0.03 in Rain Light Rain
7:55 PM 36.5 °F 31.0 °F 35.1 °F 95% 29.93 in 10.0 mi NNE 6.9 mph - 0.03 in   Drizzle
8:15 PM 36.5 °F 30.3 °F 35.1 °F 95% 29.93 in 7.0 mi NNE 8.1 mph - N/A Rain Rain
8:35 PM 36.1 °F 31.4 °F 34.9 °F 95% 29.93 in 7.0 mi NNE 5.8 mph - 0.01 in Rain Light Rain
8:55 PM 36.1 °F 30.6 °F 34.9 °F 95% 29.93 in 7.0 mi NNE 6.9 mph - 0.01 in   Drizzle
9:35 PM 35.8 °F 31.9 °F 34.7 °F 96% 29.93 in 7.0 mi NNE 4.6 mph - 0.01 in   Drizzle
9:55 PM 36.0 °F 32.1 °F 34.9 °F 96% 29.94 in 7.0 mi NNE 4.6 mph - 0.01 in   Light Drizzle
10:15 PM 36.1 °F 32.3 °F 34.9 °F 95% 29.93 in 7.0 mi NE 4.6 mph - N/A   Overcast
10:35 PM 36.1 °F 31.4 °F 35.1 °F 96% 29.93 in 7.0 mi NE 5.8 mph - N/A   Overcast
10:55 PM 35.6 °F - 34.7 °F 97% 29.93 in 10.0 mi Calm Calm - N/A   Overcast
11:15 PM 35.6 °F 32.8 °F 34.5 °F 96% 29.93 in 10.0 mi NNW 3.5 mph - N/A   Overcast
11:35 PM 35.6 °F 32.8 °F 34.7 °F 97% 29.93 in 10.0 mi NNW 3.5 mph - N/A   Overcast
11:55 PM 36.5 °F - 35.1 °F 95% 29.92 in 7.0 mi Calm Calm - N/A   Overcast